Time,TemperatureF,DewpointF,PressureIn,WindDirection,WindDirectionDegrees,WindSpeedMPH,WindSpeedGustMPH,Humidity,HourlyPrecipIn,Conditions,Clouds,dailyrainin,SoftwareType,DateUTC
2013-09-08 00:13:00,48.0,48.0,-100.00,SSW,200,1.0,1.0,100,-99.99,,,-99.99,,2013-09-08 06:13:00,
2013-09-08 00:21:00,48.0,48.0,-100.00,SSW,201,1.0,2.0,100,-99.99,,,-99.99,,2013-09-08 06:21:00,
2013-09-08 00:33:00,48.0,48.0,-100.00,SSW,201,1.0,2.0,100,-99.99,,,-99.99,,2013-09-08 06:33:00,
2013-09-08 00:42:00,48.0,48.0,-100.00,SSW,201,1.0,2.0,100,-99.99,,,-99.99,,2013-09-08 06:42:00,
2013-09-08 01:42:00,48.0,48.0,-100.00,SSW,203,1.0,1.0,100,-99.99,,,-99.99,,2013-09-08 07:42:00,
2013-09-08 01:52:00,48.0,48.0,-100.00,SSW,203,1.0,1.0,100,-99.99,,,-99.99,,2013-09-08 07:52:00,
2013-09-08 02:11:00,48.0,48.0,-100.00,SSW,203,1.0,1.0,99,-99.99,,,-99.99,,2013-09-08 08:11:00,
2013-09-08 02:22:00,48.0,47.0,-100.00,SSW,196,1.0,1.0,98,-99.99,,,-99.99,,2013-09-08 08:22:00,
2013-09-08 02:42:00,49.0,48.0,-100.00,SSW,200,1.0,2.0,96,-99.99,,,-99.99,,2013-09-08 08:42:00,
2013-09-08 02:52:00,49.0,48.0,-100.00,SSW,195,1.0,1.0,97,-99.99,,,-99.99,,2013-09-08 08:52:00,
2013-09-08 03:11:00,49.0,48.0,-100.00,SSW,197,1.0,2.0,96,-99.99,,,-99.99,,2013-09-08 09:11:00,
2013-09-08 03:22:00,50.0,48.0,-100.00,SSW,199,1.0,2.0,93,-99.99,,,-99.99,,2013-09-08 09:22:00,
2013-09-08 03:43:00,50.0,48.0,-100.00,SSW,211,1.0,1.0,92,-99.99,,,-99.99,,2013-09-08 09:43:00,
2013-09-08 03:53:00,49.0,48.0,-100.00,WSW,251,0.0,1.0,97,-99.99,,,-99.99,,2013-09-08 09:53:00,
2013-09-08 04:12:00,48.0,48.0,-100.00,South,189,1.0,2.0,100,-99.99,,,-99.99,,2013-09-08 10:12:00,
2013-09-08 04:23:00,48.0,48.0,-100.00,South,174,1.0,1.0,100,-99.99,,,-99.99,,2013-09-08 10:23:00,
2013-09-08 04:42:00,49.0,48.0,-100.00,SW,223,1.0,1.0,95,-99.99,,,-99.99,,2013-09-08 10:42:00,
2013-09-08 04:53:00,49.0,48.0,-100.00,West,261,0.0,0.0,98,-99.99,,,-99.99,,2013-09-08 10:53:00,
2013-09-08 05:12:00,48.0,48.0,-100.00,SSW,198,1.0,1.0,100,-99.99,,,-99.99,,2013-09-08 11:12:00,
2013-09-08 05:21:00,48.0,48.0,-100.00,SSE,156,0.0,1.0,100,-99.99,,,-99.99,,2013-09-08 11:21:00,
2013-09-08 05:42:00,48.0,48.0,-100.00,SSW,204,0.0,1.0,100,-99.99,,,-99.99,,2013-09-08 11:42:00,
2013-09-08 05:52:00,49.0,49.0,-100.00,South,175,0.0,1.0,100,-99.99,,,-99.99,,2013-09-08 11:52:00,
2013-09-08 06:12:00,48.0,48.0,-100.00,SE,137,1.0,1.0,100,-99.99,,,-99.99,,2013-09-08 12:12:00,
2013-09-08 06:22:00,48.0,48.0,-100.00,SSE,154,1.0,2.0,100,-99.99,,,-99.99,,2013-09-08 12:22:00,
2013-09-08 06:42:00,48.0,48.0,-100.00,SSW,201,0.0,1.0,100,-99.99,,,-99.99,,2013-09-08 12:42:00,
2013-09-08 06:52:00,48.0,48.0,-100.00,SSW,204,1.0,1.0,106,-99.99,,,-99.99,,2013-09-08 12:52:00,
2013-09-08 07:11:00,48.0,48.0,-100.00,SSW,207,1.0,2.0,100,-99.99,,,-99.99,,2013-09-08 13:11:00,
2013-09-08 07:22:00,48.0,48.0,-100.00,West,259,1.0,2.0,100,-99.99,,,-99.99,,2013-09-08 13:22:00,
2013-09-08 07:42:00,48.0,48.0,-100.00,SW,214,1.0,1.0,100,-99.99,,,-99.99,,2013-09-08 13:42:00,
2013-09-08 07:52:00,48.0,48.0,-100.00,WNW,288,1.0,1.0,100,-99.99,,,-99.99,,2013-09-08 13:52:00,
2013-09-08 08:11:00,48.0,48.0,-100.00,WSW,243,0.0,1.0,100,-99.99,,,-99.99,,2013-09-08 14:11:00,
2013-09-08 08:22:00,48.0,48.0,-100.00,West,281,0.0,0.0,100,-99.99,,,-99.99,,2013-09-08 14:22:00,
2013-09-08 08:42:00,48.0,48.0,-100.00,SW,217,0.0,0.0,100,-99.99,,,-99.99,,2013-09-08 14:42:00,
2013-09-08 08:52:00,48.0,48.0,-100.00,SSW,205,0.0,0.0,100,-99.99,,,-99.99,,2013-09-08 14:52:00,
2013-09-08 09:12:00,48.0,48.0,-100.00,WSW,240,0.0,0.0,106,-99.99,,,-99.99,,2013-09-08 15:12:00,
2013-09-08 09:23:00,48.0,48.0,-100.00,NNW,348,0.0,1.0,106,-99.99,,,-99.99,,2013-09-08 15:23:00,
2013-09-08 09:45:00,48.0,48.0,-100.00,NNW,340,0.0,1.0,106,-99.99,,,-99.99,,2013-09-08 15:45:00,
2013-09-08 09:54:00,48.0,48.0,-100.00,East,101,0.0,1.0,106,-99.99,,,-99.99,,2013-09-08 15:54:00,
2013-09-08 10:14:00,48.0,48.0,-100.00,North,0,1.0,2.0,106,-99.99,,,-99.99,,2013-09-08 16:14:00,
2013-09-08 10:23:00,48.0,48.0,-100.00,NNE,17,1.0,3.0,107,-99.99,,,-99.99,,2013-09-08 16:23:00,
2013-09-08 10:43:00,47.0,47.0,-100.00,NNW,346,1.0,2.0,107,-99.99,,,-99.99,,2013-09-08 16:43:00,
2013-09-08 10:53:00,47.0,47.0,-100.00,NNE,15,1.0,2.0,107,-99.99,,,-99.99,,2013-09-08 16:53:00,
2013-09-08 11:12:00,46.0,46.0,-100.00,NNE,12,1.0,3.0,108,-99.99,,,-99.99,,2013-09-08 17:12:00,
2013-09-08 11:23:00,46.0,46.0,-100.00,North,11,1.0,4.0,108,-99.99,,,-99.99,,2013-09-08 17:23:00,
2013-09-08 11:43:00,46.0,46.0,-100.00,NNE,15,1.0,3.0,108,-99.99,,,-99.99,,2013-09-08 17:43:00,
2013-09-08 11:53:00,46.0,46.0,-100.00,North,7,2.0,3.0,108,-99.99,,,-99.99,,2013-09-08 17:53:00,
2013-09-08 12:13:00,46.0,46.0,-100.00,NNE,14,1.0,3.0,108,-99.99,,,-99.99,,2013-09-08 18:13:00,
2013-09-08 12:22:00,45.0,45.0,-100.00,NNE,27,2.0,4.0,108,-99.99,,,-99.99,,2013-09-08 18:22:00,
2013-09-08 12:42:00,45.0,45.0,-100.00,North,10,1.0,2.0,108,-99.99,,,-99.99,,2013-09-08 18:42:00,
2013-09-08 12:52:00,46.0,46.0,-100.00,NNE,17,1.0,3.0,108,-99.99,,,-99.99,,2013-09-08 18:52:00,
2013-09-08 13:12:00,46.0,46.0,-100.00,NNE,19,2.0,4.0,108,-99.99,,,-99.99,,2013-09-08 19:12:00,
2013-09-08 13:22:00,45.0,45.0,-100.00,North,11,1.0,3.0,108,-99.99,,,-99.99,,2013-09-08 19:22:00,
2013-09-08 13:42:00,46.0,46.0,-100.00,North,9,1.0,3.0,108,-99.99,,,-99.99,,2013-09-08 19:42:00,
2013-09-08 13:52:00,46.0,46.0,-100.00,NNE,16,1.0,3.0,108,-99.99,,,-99.99,,2013-09-08 19:52:00,
2013-09-08 14:11:00,46.0,46.0,-100.00,NNE,22,1.0,3.0,108,-99.99,,,-99.99,,2013-09-08 20:11:00,
2013-09-08 14:22:00,46.0,46.0,-100.00,NE,42,1.0,3.0,108,-99.99,,,-99.99,,2013-09-08 20:22:00,
2013-09-08 14:42:00,47.0,47.0,-100.00,North,359,0.0,1.0,108,-99.99,,,-99.99,,2013-09-08 20:42:00,
2013-09-08 14:53:00,48.0,48.0,-100.00,WNW,288,0.0,1.0,107,-99.99,,,-99.99,,2013-09-08 20:53:00,
2013-09-08 15:12:00,48.0,48.0,-100.00,NNW,336,1.0,2.0,100,-99.99,,,-99.99,,2013-09-08 21:12:00,
2013-09-08 15:22:00,50.0,50.0,-100.00,North,1,1.0,3.0,100,-99.99,,,-99.99,,2013-09-08 21:22:00,
2013-09-08 15:43:00,51.0,51.0,-100.00,North,351,1.0,1.0,99,-99.99,,,-99.99,,2013-09-08 21:43:00,
2013-09-08 15:54:00,52.0,52.0,-100.00,North,8,1.0,3.0,100,-99.99,,,-99.99,,2013-09-08 21:54:00,
2013-09-08 16:13:00,52.0,52.0,-100.00,NNE,17,1.0,2.0,100,-99.99,,,-99.99,,2013-09-08 22:13:00,
2013-09-08 16:24:00,52.0,52.0,-100.00,NNE,17,1.0,3.0,100,-99.99,,,-99.99,,2013-09-08 22:24:00,
2013-09-08 16:43:00,52.0,52.0,-100.00,NE,41,1.0,2.0,100,-99.99,,,-99.99,,2013-09-08 22:43:00,
2013-09-08 16:53:00,52.0,52.0,-100.00,North,356,1.0,2.0,100,-99.99,,,-99.99,,2013-09-08 22:53:00,
2013-09-08 17:12:00,52.0,52.0,-100.00,North,349,1.0,2.0,99,-99.99,,,-99.99,,2013-09-08 23:12:00,
2013-09-08 17:22:00,53.0,53.0,-100.00,NNE,15,1.0,2.0,100,-99.99,,,-99.99,,2013-09-08 23:22:00,
2013-09-08 17:42:00,52.0,52.0,-100.00,NNE,28,1.0,3.0,100,-99.99,,,-99.99,,2013-09-08 23:42:00,
2013-09-08 17:52:00,52.0,52.0,-100.00,NNE,33,1.0,2.0,100,-99.99,,,-99.99,,2013-09-08 23:52:00,
2013-09-08 18:11:00,52.0,52.0,-100.00,NNE,15,1.0,2.0,100,-99.99,,,-99.99,,2013-09-09 00:11:00,
2013-09-08 18:22:00,52.0,52.0,-100.00,NE,34,1.0,2.0,100,-99.99,,,-99.99,,2013-09-09 00:22:00,
2013-09-08 18:42:00,52.0,52.0,-100.00,NNE,23,0.0,2.0,100,-99.99,,,-99.99,,2013-09-09 00:42:00,
2013-09-08 18:52:00,52.0,52.0,-100.00,North,9,0.0,1.0,100,-99.99,,,-99.99,,2013-09-09 00:52:00,
2013-09-08 19:12:00,52.0,52.0,-100.00,NW,311,0.0,1.0,99,-99.99,,,-99.99,,2013-09-09 01:12:00,
2013-09-08 19:21:00,52.0,50.0,-100.00,SE,127,0.0,1.0,93,-99.99,,,-99.99,,2013-09-09 01:21:00,
2013-09-08 19:42:00,51.0,50.0,-100.00,WSW,246,0.0,1.0,97,-99.99,,,-99.99,,2013-09-09 01:42:00,
2013-09-08 19:52:00,50.0,49.0,-100.00,SSW,208,1.0,1.0,98,-99.99,,,-99.99,,2013-09-09 01:52:00,
2013-09-08 20:11:00,49.0,49.0,-100.00,SSW,210,1.0,1.0,99,-99.99,,,-99.99,,2013-09-09 02:11:00,
2013-09-08 20:21:00,48.0,48.0,-100.00,SSW,201,1.0,1.0,99,-99.99,,,-99.99,,2013-09-09 02:21:00,
2013-09-08 20:42:00,47.0,46.0,-100.00,SSW,202,1.0,1.0,98,-99.99,,,-99.99,,2013-09-09 02:42:00,
2013-09-08 20:52:00,46.0,45.0,-100.00,SSW,205,1.0,1.0,97,-99.99,,,-99.99,,2013-09-09 02:52:00,
2013-09-08 21:12:00,46.0,45.0,-100.00,SSW,204,1.0,1.0,96,-99.99,,,-99.99,,2013-09-09 03:12:00,
2013-09-08 21:22:00,46.0,45.0,-100.00,SSW,198,1.0,1.0,95,-99.99,,,-99.99,,2013-09-09 03:22:00,
2013-09-08 21:44:00,46.0,44.0,-100.00,SSW,198,1.0,1.0,94,-99.99,,,-99.99,,2013-09-09 03:44:00,
2013-09-08 21:55:00,46.0,44.0,-100.00,SSW,197,1.0,1.0,93,-99.99,,,-99.99,,2013-09-09 03:55:00,
2013-09-08 22:14:00,47.0,46.0,-100.00,SSW,207,1.0,1.0,96,-99.99,,,-99.99,,2013-09-09 04:14:00,
2013-09-08 22:24:00,47.0,45.0,-100.00,SSW,202,1.0,1.0,92,-99.99,,,-99.99,,2013-09-09 04:24:00,
2013-09-08 22:43:00,46.0,43.0,-100.00,SSW,196,1.0,1.0,90,-99.99,,,-99.99,,2013-09-09 04:43:00,
2013-09-08 22:54:00,47.0,44.0,-100.00,SSW,198,1.0,1.0,89,-99.99,,,-99.99,,2013-09-09 04:54:00,
2013-09-08 23:13:00,47.0,44.0,-100.00,SSW,198,1.0,1.0,88,-99.99,,,-99.99,,2013-09-09 05:13:00,
2013-09-08 23:23:00,47.0,44.0,-100.00,SSW,200,1.0,1.0,89,-99.99,,,-99.99,,2013-09-09 05:23:00,
2013-09-08 23:53:00,48.0,45.0,-100.00,SSW,199,1.0,1.0,90,-99.99,,,-99.99,,2013-09-09 05:53:00,